DW3793 Weather Reports


Display with metric or nautical units.
time (UTC)temp
F
wind
direction
speed
MPH
gust
MPH
rain 1hr
in
rain 24hr
in
rain mn
in
humidity
%
barometer
mb
20260906033006 54 141 0.0 0.0 0.00 0.00 0.00 74 1016.4
20260906031509 55 215 0.0 0.0 0.00 0.00 0.00 73 1016.3
20260906030003 56 218 0.0 0.0 0.00 0.00 0.00 72 1016.2
20260906024503 58 218 0.0 0.0 0.00 0.00 0.00 68 1016.0
20260906023002 60 218 0.0 0.0 0.00 0.00 0.00 64 1015.8
20260906021503 62 205 0.0 1.0 0.00 0.00 0.00 60 1015.9
20260906020001 63 214 0.0 1.0 0.00 0.00 0.00 57 1015.8
20260906014536 65 211 0.0 0.0 0.00 0.00 0.00 53 1015.8
20260906013040 66 214 0.0 2.0 0.00 0.00 0.00 51 1015.9
20260906011501 66 195 0.0 1.0 0.00 0.00 0.00 50 1016.0
20260906010100 66 211 0.0 3.0 0.00 0.00 0.00 49 1015.9
20260906004556 66 334 0.0 1.0 0.00 0.00 0.00 49 1015.7
20260906003056 66 334 0.0 3.0 0.00 0.00 0.00 46 1015.7
20260906001554 70 207 0.0 3.0 0.00 0.00 0.00 43 1015.7
20260906000055 71 250 0.0 1.0 0.00 0.00 0.00 42 1015.7
20260905234548 69 246 0.0 2.0 0.00 0.00 0.00 44 1015.8
20260905233047 66 26 0.0 3.0 0.00 0.00 0.00 47 1015.8
20260905231547 68 327 0.0 4.0 0.00 0.00 0.00 45 1015.9
20260905230044 67 326 0.0 4.0 0.00 0.00 0.00 47 1015.9
20260905224540 68 312 1.0 7.0 0.00 0.00 0.00 46 1016.1
20260905223039 67 202 0.0 2.0 0.00 0.00 0.00 49 1016.3
20260905221538 68 259 0.0 4.0 0.00 0.00 0.00 49 1016.3
20260905220034 66 39 0.0 5.0 0.00 0.00 0.00 52 1016.4
20260905214533 64 321 0.0 3.0 0.00 0.00 0.00 54 1016.4
20260905213029 64 306 0.0 3.0 0.00 0.00 0.00 56 1016.7
20260905211527 65 312 0.0 6.0 0.00 0.00 0.00 56 1016.8
20260905210023 63 327 0.0 5.0 0.00 0.00 0.00 58 1016.9
20260905204554 63 350 2.0 9.0 0.00 0.00 0.00 57 1017.0
20260905203051 62 311 0.0 5.0 0.00 0.00 0.00 60 1017.1
20260905201520 61 313 0.0 1.0 0.00 0.00 0.00 61 1017.2
20260905200028 61 333 0.0 1.0 0.00 0.00 0.00 62 1017.0
20260905194516 61 215 0.0 1.0 0.00 0.00 0.00 61 1016.9
20260905193017 60 194 0.0 4.0 0.00 0.00 0.00 66 1016.9
20260905191515 60 338 0.0 1.0 0.00 0.00 0.00 65 1017.1
20260905190022 61 217 0.0 0.0 0.00 0.00 0.00 62 1017.4
20260905184546 60 223 0.0 1.0 0.00 0.00 0.00 60 1017.4
20260905183049 61 237 0.0 1.0 0.00 0.00 0.00 60 1017.4
20260905181547 61 251 0.0 3.0 0.00 0.00 0.00 60 1017.5
20260905180039 61 350 0.0 4.0 0.00 0.00 0.00 61 1017.6
20260905174540 60 241 0.0 2.0 0.00 0.00 0.00 64 1017.6
20260905173033 59 322 0.0 2.0 0.00 0.00 0.00 64 1017.6
20260905171539 57 149 0.0 1.0 0.00 0.00 0.00 70 1017.9
20260905170025 56 53 0.0 2.0 0.00 0.00 0.00 70 1017.9
20260905164520 54 249 0.0 4.0 0.00 0.00 0.00 74 1017.8
20260905163018 52 355 0.0 3.0 0.00 0.00 0.00 76 1017.9
20260905161512 51 213 0.0 3.0 0.00 0.00 0.00 83 1017.9
20260905160018 50 310 0.0 1.0 0.00 0.00 0.00 83 1017.7
20260905154511 50 36 0.0 2.0 0.00 0.00 0.00 82 1018.1
20260905153010 51 299 0.0 3.0 0.00 0.00 0.00 82 1018.0
20260905151508 51 308 0.0 1.0 0.00 0.00 0.00 84 1017.9
20260905150003 49 168 0.0 0.0 0.00 0.00 0.00 83 1018.0
20260905144559 49 168 0.0 0.0 0.00 0.00 0.00 84 1017.9
20260905143056 48 161 0.0 0.0 0.00 0.00 0.00 86 1017.8
20260905141600 47 75 0.0 0.0 0.00 0.00 0.00 88 1017.8
20260905140055 46 64 0.0 1.0 0.00 0.00 0.00 88 1017.7
20260905134550 46 205 0.0 3.0 0.00 0.00 0.00 88 1017.5
20260905133049 46 95 0.0 0.0 0.00 0.00 0.00 89 1017.3
20260905131559 46 338 0.0 0.0 0.00 0.00 0.00 89 1017.4
20260905130045 46 338 0.0 0.0 0.00 0.00 0.00 89 1017.4
20260905124545 45 345 0.0 0.0 0.00 0.00 0.00 90 1017.3
20260905123043 45 345 0.0 0.0 0.00 0.00 0.00 90 1017.3
20260905121543 44 345 0.0 0.0 0.00 0.00 0.00 89 1017.5
20260905120041 45 345 0.0 0.0 0.00 0.00 0.00 87 1017.4
20260905114543 46 254 0.0 0.0 0.00 0.00 0.00 86 1017.1
20260905113036 46 254 0.0 0.0 0.00 0.00 0.00 85 1017.0
20260905111542 46 125 0.0 0.0 0.00 0.00 0.00 84 1016.8
20260905110033 46 63 0.0 1.0 0.00 0.00 0.00 84 1016.9
20260905104538 46 142 0.0 0.0 0.00 0.00 0.00 83 1017.0
20260905103037 47 142 0.0 0.0 0.00 0.00 0.00 82 1016.9
20260905101531 46 144 0.0 0.0 0.00 0.00 0.00 84 1017.0
20260905100030 46 17 0.0 0.0 0.00 0.00 0.00 83 1017.1
20260905094527 47 130 0.0 1.0 0.00 0.00 0.00 80 1016.9
20260905093027 48 113 0.0 1.0 0.00 0.00 0.00 79 1016.9
20260905091525 47 123 0.0 1.0 0.00 0.00 0.00 80 1016.9
20260905090020 47 119 0.0 1.0 0.00 0.00 0.00 81 1016.9
20260905084518 46 122 0.0 1.0 0.00 0.00 0.00 82 1017.0
20260905083015 45 156 0.0 1.0 0.00 0.00 0.00 84 1016.9
20260905081513 45 154 0.0 1.0 0.00 0.00 0.00 86 1016.9
20260905080007 45 108 0.0 0.0 0.00 0.00 0.00 86 1016.8
20260905074505 45 178 0.0 0.0 0.00 0.00 0.00 85 1016.8
20260905073002 46 178 0.0 0.0 0.00 0.00 0.00 82 1016.4
20260905071559 47 178 0.0 0.0 0.00 0.00 0.00 82 1016.0
20260905070031 48 178 0.0 0.0 0.00 0.00 0.00 79 1015.8
20260905064527 50 178 0.0 0.0 0.00 0.00 0.00 76 1015.7
20260905063059 50 128 0.0 0.0 0.00 0.00 0.00 76 1015.6
20260905061558 49 155 0.0 0.0 0.00 0.00 0.00 78 1015.6
20260905060055 49 101 0.0 0.0 0.00 0.00 0.00 78 1015.4
20260905054554 50 90 0.0 0.0 0.00 0.01 0.00 78 1015.4
20260905053053 51 90 0.0 0.0 0.00 0.01 0.00 75 1015.3
20260905051554 52 90 0.0 1.0 0.00 0.01 0.00 72 1015.2
20260905050050 52 95 0.0 1.0 0.00 0.01 0.00 69 1015.4
20260905044550 53 227 0.0 0.0 0.00 0.11 0.00 68 1015.3
20260905043049 53 138 0.0 1.0 0.00 0.11 0.00 67 1015.3
20260905041549 53 140 0.0 2.0 0.00 0.11 0.00 68 1015.3
20260905040052 54 114 0.0 2.0 0.00 0.11 0.00 68 1015.2
20260905034546 53 145 0.0 1.0 0.00 0.18 0.00 70 1015.3